Back to catalog

CZ-6A DEB

AlivePO
NORAD 60845·DEBRIS·🇨🇳 China

Launched Aug 6, 2024 from Taiyuan Satellite Launch Center

Loading…

Next Passes (next 24 hours)

TLE

FreshSource: Space-Track

Epoch: Sep 14, 2026, 07:13 UTC

1 60845U 24140HY  26257.30088358  .00000379  00000-0  74373-4 0  9998
2 60845  89.0312 262.7605 0121315 302.7914  56.1655 14.56159929110927

Track CZ-6A DEB in real time with AllMySat

Download on the App Store